contact:dominique.lefevre@mio.osupytheas.fr, maurice.libes@osupytheas.fr, didier.mallarino@osupytheas.fr
Project:EMSO http://www.emso-fr.org/EMSO-France
Depth: 2436.0 m
Title:EMSO Ligure Ouest : Data MII capteur AQUADOPP
Date,Latitude,Longitude,X_East,Y_North,Z_Up,Amplitude_X,Amplitude_Y,Amplitude_Z,Batterie,SoundSpeed,Heading,Pitch,Roll,Pressure,TIS,Speed,Direction
, degrees North, degrees East, m.s-1, m.s-1,m.s-1, 1, 1, 1, Volt, m.s-1, degree, degree, degree, dbar, degree_C, m.s-1, degree
2022-08-13T00:04:03,42.805,6.029,0.01,-0.004,-0.041,104.0,102.0,101.0,13.4,1505.2,318.8,-0.8,1.8,2470.935,13.28,0.01,111.8
2022-08-13T00:07:03,42.805,6.029,0.021,-0.005,0.004,102.0,103.0,100.0,13.4,1505.2,334.2,-0.7,1.8,2470.953,13.28,0.021,103.4
2022-08-13T00:10:03,42.805,6.029,0.011,-0.019,-0.019,103.0,102.0,101.0,13.4,1505.2,327.2,-0.7,1.8,2470.933,13.28,0.021,149.9
2022-08-13T00:13:03,42.805,6.029,0.027,-0.024,-0.014,103.0,103.0,101.0,13.3,1505.2,332.8,-0.8,1.8,2470.909,13.28,0.036,131.6
2022-08-13T00:16:03,42.805,6.029,0.035,-0.022,-0.023,102.0,102.0,101.0,13.4,1505.2,321.1,-0.7,1.8,2470.933,13.28,0.041,122.2
2022-08-13T00:19:03,42.805,6.029,0.015,-0.024,-0.041,104.0,102.0,100.0,13.4,1505.2,329.1,-0.8,1.8,2470.925,13.29,0.028,148.0
2022-08-13T00:22:03,42.805,6.029,0.021,-0.017,-0.013,103.0,103.0,99.0,13.4,1505.2,319.5,-0.7,1.8,2470.923,13.29,0.027,129.0
2022-08-13T00:25:03,42.805,6.029,0.016,-0.005,-0.025,101.0,102.0,102.0,13.4,1505.2,321.5,-0.8,1.8,2470.892,13.29,0.016,107.4
2022-08-13T00:28:03,42.805,6.029,-0.004,-0.015,-0.046,103.0,103.0,101.0,13.4,1505.2,332.1,-0.8,1.8,2470.877,13.29,0.015,194.9
2022-08-13T00:31:03,42.805,6.029,0.017,-0.022,-0.011,104.0,101.0,102.0,13.3,1505.2,323.4,-0.7,1.8,2470.914,13.29,0.027,142.3
2022-08-13T00:34:03,42.805,6.029,0.038,-0.024,0.01,103.0,103.0,101.0,13.4,1505.2,321.2,-0.8,1.8,2470.934,13.29,0.044,122.3
2022-08-13T00:37:03,42.805,6.029,0.03,-0.015,-0.015,102.0,102.0,101.0,13.4,1505.2,324.5,-0.8,1.8,2470.852,13.29,0.033,116.6
2022-08-13T00:40:03,42.805,6.029,0.003,-0.019,-0.025,103.0,104.0,101.0,13.4,1505.2,333.7,-0.7,1.8,2470.882,13.29,0.019,171.0
2022-08-13T00:43:03,42.805,6.029,0.014,-0.002,-0.027,102.0,103.0,100.0,13.3,1505.2,330.4,-0.8,1.8,2470.871,13.29,0.014,98.1
2022-08-13T00:46:03,42.805,6.029,0.013,-0.028,-0.056,102.0,102.0,101.0,13.4,1505.2,326.7,-0.8,1.8,2470.921,13.29,0.03,155.1
2022-08-13T00:49:03,42.805,6.029,0.017,-0.015,0.005,103.0,103.0,101.0,13.4,1505.2,334.2,-0.8,1.8,2470.872,13.29,0.022,131.4
2022-08-13T00:52:03,42.805,6.029,0.027,-0.026,-0.041,102.0,102.0,101.0,13.4,1505.2,329.2,-0.8,1.8,2470.887,13.29,0.037,133.9
2022-08-13T00:55:03,42.805,6.029,0.02,-0.018,-0.029,102.0,102.0,101.0,13.4,1505.2,318.7,-0.8,1.8,2470.87,13.29,0.026,132.0
2022-08-13T00:58:03,42.805,6.029,0.017,-0.009,-0.005,104.0,102.0,101.0,13.4,1505.2,325.8,-0.7,1.8,2470.885,13.29,0.019,117.9
2022-08-13T01:04:03,42.805,6.029,0.009,0.011,-0.013,105.0,105.0,102.0,13.4,1505.2,329.0,-0.8,1.8,2470.929,13.28,0.014,39.3
2022-08-13T01:07:04,42.805,6.029,0.025,-0.012,-0.025,102.0,103.0,101.0,13.4,1505.2,325.5,-0.8,1.8,2470.962,13.28,0.027,115.6
2022-08-13T01:10:03,42.805,6.029,0.028,-0.011,0.003,102.0,101.0,101.0,13.4,1505.2,330.2,-0.8,1.8,2470.882,13.28,0.03,111.4
2022-08-13T01:13:03,42.805,6.029,0.041,-0.016,0.003,102.0,101.0,101.0,13.4,1505.2,323.5,-0.7,1.8,2470.887,13.28,0.044,111.3
2022-08-13T01:16:03,42.805,6.029,0.013,-0.016,0.0,103.0,102.0,101.0,13.4,1505.2,328.8,-0.7,1.8,2470.867,13.28,0.02,140.9
2022-08-13T01:19:03,42.805,6.029,0.033,-0.03,-0.008,103.0,102.0,101.0,13.4,1505.2,332.3,-0.8,1.8,2470.863,13.28,0.044,132.3
2022-08-13T01:22:03,42.805,6.029,0.02,-0.011,-0.01,103.0,102.0,101.0,13.4,1505.2,323.7,-0.8,1.8,2470.877,13.28,0.022,118.8
2022-08-13T01:25:03,42.805,6.029,0.022,-0.01,-0.007,102.0,102.0,102.0,13.4,1505.2,326.4,-0.7,1.8,2470.875,13.29,0.024,114.4
2022-08-13T01:28:03,42.805,6.029,0.02,-0.02,-0.002,101.0,102.0,101.0,13.3,1505.2,319.0,-0.7,1.8,2470.846,13.28,0.028,135.0
2022-08-13T01:31:03,42.805,6.029,0.027,0.0,0.009,102.0,103.0,100.0,13.4,1505.2,324.5,-0.8,1.8,2470.862,13.29,0.026,90.0
2022-08-13T01:34:03,42.805,6.029,0.012,0.0,0.003,103.0,103.0,100.0,13.3,1505.2,333.4,-0.7,1.8,2470.875,13.29,0.012,90.0
2022-08-13T01:37:03,42.805,6.029,0.012,-0.026,-0.02,103.0,103.0,99.0,13.3,1505.2,334.5,-0.8,1.8,2470.862,13.29,0.028,155.2
2022-08-13T01:40:03,42.805,6.029,0.023,-0.003,-0.018,102.0,101.0,101.0,13.4,1505.2,327.9,-0.8,1.8,2470.847,13.28,0.023,97.4
2022-08-13T01:43:03,42.805,6.029,0.027,-0.011,-0.026,103.0,102.0,100.0,13.4,1505.2,326.3,-0.8,1.8,2470.839,13.29,0.029,112.2
2022-08-13T01:46:03,42.805,6.029,0.022,-0.015,0.006,102.0,102.0,101.0,13.4,1505.2,328.6,-0.7,1.8,2470.832,13.29,0.026,124.3
2022-08-13T01:49:03,42.805,6.029,0.021,-0.019,0.02,104.0,103.0,100.0,13.3,1505.2,323.2,-0.8,1.8,2470.863,13.29,0.028,132.1
2022-08-13T01:52:03,42.805,6.029,0.001,-0.009,0.002,103.0,102.0,100.0,13.4,1505.2,326.4,-0.8,1.8,2470.816,13.29,0.009,173.7
2022-08-13T01:55:03,42.805,6.029,0.026,-0.021,-0.031,102.0,102.0,101.0,13.4,1505.2,325.3,-0.8,1.8,2470.821,13.29,0.033,128.9
2022-08-13T01:58:03,42.805,6.029,0.016,-0.005,-0.035,102.0,103.0,101.0,13.4,1505.2,319.1,-0.8,1.8,2470.823,13.29,0.016,107.4
2022-08-13T02:04:03,42.805,6.029,0.023,-0.02,-0.024,103.0,103.0,101.0,13.4,1505.2,329.6,-0.8,1.8,2470.876,13.28,0.03,131.0
2022-08-13T02:07:03,42.805,6.029,0.039,-0.003,-0.02,103.0,103.0,100.0,13.4,1505.2,326.6,-0.8,1.8,2470.885,13.28,0.039,94.4
2022-08-13T02:10:03,42.805,6.029,0.048,-0.001,0.009,103.0,101.0,101.0,13.4,1505.2,325.0,-0.8,1.8,2470.899,13.28,0.048,91.2
2022-08-13T02:13:03,42.805,6.029,0.04,0.001,-0.004,103.0,102.0,101.0,13.4,1505.2,325.9,-0.8,1.8,2470.834,13.28,0.04,88.6
2022-08-13T02:16:03,42.805,6.029,0.011,0.008,0.0,104.0,100.0,99.0,13.4,1505.2,319.4,-0.8,1.8,2470.859,13.28,0.013,54.0
2022-08-13T02:19:03,42.805,6.029,0.028,-0.008,0.015,102.0,104.0,100.0,13.3,1505.2,326.1,-0.7,1.8,2470.857,13.28,0.029,105.9
2022-08-13T02:22:03,42.805,6.029,0.045,-0.012,-0.011,101.0,104.0,100.0,13.4,1505.2,331.5,-0.8,1.8,2470.834,13.28,0.046,104.9
2022-08-13T02:25:03,42.805,6.029,0.018,-0.015,0.001,102.0,102.0,101.0,13.4,1505.2,328.8,-0.8,1.8,2470.838,13.28,0.023,129.8
2022-08-13T02:28:03,42.805,6.029,0.018,-0.012,-0.002,102.0,102.0,101.0,13.4,1505.2,332.8,-0.7,1.8,2470.808,13.28,0.021,123.7
2022-08-13T02:31:03,42.805,6.029,0.004,0.004,-0.008,101.0,103.0,100.0,13.4,1505.2,329.6,-0.7,1.8,2470.82,13.29,0.005,45.0
2022-08-13T02:34:03,42.805,6.029,0.027,-0.016,-0.025,103.0,102.0,100.0,13.4,1505.2,320.5,-0.7,1.8,2470.833,13.29,0.031,120.7
2022-08-13T02:37:03,42.805,6.029,0.039,-0.014,0.004,102.0,103.0,101.0,13.3,1505.2,328.1,-0.7,1.8,2470.824,13.28,0.041,109.7
2022-08-13T02:40:03,42.805,6.029,0.022,-0.021,-0.02,101.0,103.0,100.0,13.4,1505.2,320.9,-0.8,1.8,2470.845,13.28,0.03,133.7
2022-08-13T02:43:03,42.805,6.029,0.042,0.0,0.006,102.0,102.0,101.0,13.4,1505.2,317.9,-0.8,1.8,2470.824,13.29,0.042,90.0
2022-08-13T02:46:03,42.805,6.029,0.039,-0.018,-0.008,103.0,102.0,100.0,13.3,1505.2,332.0,-0.8,1.8,2470.803,13.29,0.042,114.8
2022-08-13T02:49:03,42.805,6.029,0.028,0.007,0.012,104.0,101.0,100.0,13.3,1505.2,326.4,-0.8,1.8,2470.786,13.29,0.028,76.0
2022-08-13T02:52:03,42.805,6.029,0.022,-0.009,-0.036,103.0,102.0,101.0,13.4,1505.2,318.9,-0.7,1.8,2470.785,13.29,0.023,112.2
2022-08-13T02:55:03,42.805,6.029,0.016,0.003,0.003,102.0,102.0,101.0,13.3,1505.2,323.2,-0.8,1.8,2470.855,13.28,0.016,79.4
2022-08-13T02:58:03,42.805,6.029,0.023,-0.014,-0.011,103.0,103.0,101.0,13.4,1505.2,323.3,-0.8,1.8,2470.799,13.29,0.026,121.3
2022-08-13T03:04:03,42.805,6.029,0.017,-0.004,0.006,102.0,103.0,100.0,13.4,1505.2,319.7,-0.7,1.8,2470.877,13.28,0.017,103.2
2022-08-13T03:07:03,42.805,6.029,0.044,-0.02,-0.031,102.0,104.0,100.0,13.4,1505.2,331.0,-0.8,1.8,2470.868,13.28,0.048,114.4
2022-08-13T03:10:03,42.805,6.029,0.016,-0.006,0.0,101.0,103.0,101.0,13.4,1505.2,326.4,-0.7,1.8,2470.767,13.28,0.017,110.6
2022-08-13T03:13:03,42.805,6.029,0.019,-0.016,0.009,102.0,102.0,100.0,13.3,1505.2,328.3,-0.7,1.8,2470.819,13.28,0.024,130.1
2022-08-13T03:16:03,42.805,6.029,0.046,0.0,-0.002,101.0,104.0,100.0,13.4,1505.2,321.2,-0.7,1.8,2470.853,13.28,0.046,90.0
2022-08-13T03:19:03,42.805,6.029,0.045,-0.018,-0.003,101.0,103.0,101.0,13.4,1505.2,326.0,-0.8,1.9,2470.809,13.28,0.048,111.8
2022-08-13T03:22:03,42.805,6.029,0.04,0.0,0.015,103.0,101.0,101.0,13.4,1505.2,325.6,-0.8,1.8,2470.787,13.28,0.04,90.0
2022-08-13T03:25:03,42.805,6.029,0.032,-0.011,-0.003,102.0,102.0,101.0,13.3,1505.2,329.4,-0.8,1.8,2470.814,13.28,0.033,109.0
2022-08-13T03:28:03,42.805,6.029,0.047,-0.014,-0.023,102.0,102.0,101.0,13.4,1505.2,322.7,-0.8,1.8,2470.808,13.29,0.049,106.6
2022-08-13T03:31:03,42.805,6.029,0.046,-0.039,-0.039,103.0,103.0,100.0,13.4,1505.2,329.0,-0.8,1.8,2470.795,13.28,0.06,130.3
2022-08-13T03:34:03,42.805,6.029,0.032,-0.015,0.005,102.0,102.0,100.0,13.4,1505.2,329.4,-0.8,1.8,2470.799,13.28,0.035,115.1
2022-08-13T03:37:03,42.805,6.029,0.038,-0.025,-0.025,101.0,103.0,100.0,13.4,1505.2,330.0,-0.8,1.8,2470.798,13.29,0.045,123.3
2022-08-13T03:40:03,42.805,6.029,0.045,-0.013,0.019,103.0,101.0,100.0,13.3,1505.2,326.9,-0.7,1.8,2470.764,13.29,0.046,106.1
2022-08-13T03:43:03,42.805,6.029,0.027,-0.017,-0.005,102.0,102.0,101.0,13.3,1505.2,334.4,-0.7,1.8,2470.799,13.29,0.031,122.2
2022-08-13T03:46:03,42.805,6.029,0.032,-0.024,0.004,102.0,102.0,101.0,13.4,1505.2,323.2,-0.7,1.8,2470.805,13.28,0.04,126.9
2022-08-13T03:49:03,42.805,6.029,0.027,-0.029,0.006,102.0,103.0,101.0,13.3,1505.2,330.4,-0.8,1.8,2470.821,13.29,0.039,137.0
2022-08-13T03:52:03,42.805,6.029,0.051,-0.012,0.007,102.0,103.0,102.0,13.4,1505.2,333.9,-0.8,1.8,2470.865,13.28,0.052,103.2
2022-08-13T03:55:03,42.805,6.029,0.025,-0.02,-0.03,103.0,101.0,101.0,13.4,1505.2,328.6,-0.7,1.8,2470.813,13.28,0.032,128.7
2022-08-13T03:58:03,42.805,6.029,0.033,-0.023,-0.01,101.0,102.0,102.0,13.4,1505.2,333.1,-0.7,1.8,2470.808,13.28,0.04,124.9
2022-08-13T04:04:03,42.805,6.029,0.054,-0.012,-0.002,103.0,102.0,101.0,13.3,1505.2,328.4,-0.7,1.8,2470.843,13.28,0.055,102.5
2022-08-13T04:07:03,42.805,6.029,0.04,-0.022,-0.016,103.0,103.0,100.0,13.4,1505.2,323.3,-0.8,1.8,2470.872,13.28,0.045,118.8
2022-08-13T04:10:03,42.805,6.029,0.031,-0.017,-0.011,104.0,101.0,102.0,13.4,1505.2,326.1,-0.7,1.8,2470.8,13.28,0.035,118.7
2022-08-13T04:13:03,42.805,6.029,0.03,-0.019,0.0,104.0,100.0,100.0,13.4,1505.2,329.0,-0.8,1.8,2470.798,13.28,0.035,122.3
2022-08-13T04:16:03,42.805,6.029,0.032,-0.019,-0.027,102.0,106.0,101.0,13.4,1505.2,318.6,-0.8,1.8,2470.868,13.28,0.037,120.7
2022-08-13T04:19:03,42.805,6.029,0.038,-0.014,0.018,103.0,101.0,101.0,13.4,1505.2,323.6,-0.7,1.8,2470.866,13.28,0.04,110.2
2022-08-13T04:22:03,42.805,6.029,0.043,-0.022,-0.011,104.0,101.0,100.0,13.4,1505.2,331.7,-0.8,1.8,2470.833,13.28,0.048,117.1
2022-08-13T04:25:03,42.805,6.029,0.026,-0.012,0.01,102.0,103.0,101.0,13.4,1505.2,330.0,-0.7,1.8,2470.822,13.28,0.028,114.8
2022-08-13T04:28:03,42.805,6.029,0.065,-0.018,0.003,107.0,103.0,101.0,13.4,1505.2,333.1,-0.7,1.8,2470.872,13.28,0.067,105.5
2022-08-13T04:31:03,42.805,6.029,0.029,0.0,0.023,103.0,101.0,102.0,13.3,1505.2,320.1,-0.7,1.8,2470.843,13.28,0.028,90.0
2022-08-13T04:34:03,42.805,6.029,0.046,-0.017,0.022,102.0,102.0,102.0,13.4,1505.2,327.8,-0.7,1.8,2470.824,13.28,0.049,110.3
2022-08-13T04:37:03,42.805,6.029,0.022,-0.006,-0.012,102.0,102.0,101.0,13.4,1505.2,327.3,-0.8,1.9,2470.845,13.28,0.022,105.3
2022-08-13T04:40:03,42.805,6.029,0.018,-0.014,-0.014,103.0,102.0,101.0,13.4,1505.2,328.7,-0.8,1.8,2470.834,13.28,0.022,127.9
2022-08-13T04:43:03,42.805,6.029,0.028,0.007,0.005,102.0,103.0,102.0,13.4,1505.2,318.8,-0.8,1.9,2470.828,13.28,0.028,76.0
2022-08-13T04:46:03,42.805,6.029,0.02,-0.028,-0.016,101.0,104.0,101.0,13.3,1505.2,329.0,-0.8,1.8,2470.839,13.29,0.034,144.5
2022-08-13T04:49:03,42.805,6.029,0.035,-0.027,-0.018,102.0,102.0,102.0,13.4,1505.2,326.7,-0.8,1.8,2470.854,13.28,0.044,127.7
2022-08-13T04:52:03,42.805,6.029,0.02,-0.015,-0.025,102.0,103.0,102.0,13.4,1505.2,326.3,-0.8,1.8,2470.84,13.28,0.025,126.9
2022-08-13T04:55:03,42.805,6.029,0.036,-0.003,-0.008,103.0,102.0,100.0,13.4,1505.2,319.9,-0.7,1.8,2470.856,13.28,0.036,94.8
2022-08-13T04:58:03,42.805,6.029,0.018,-0.017,0.003,103.0,101.0,101.0,13.3,1505.2,332.1,-0.8,1.8,2470.831,13.28,0.024,133.4
2022-08-13T05:04:03,42.805,6.029,0.034,-0.033,0.007,103.0,103.0,101.0,13.4,1505.2,329.0,-0.7,1.8,2470.895,13.28,0.047,134.1
2022-08-13T05:07:03,42.805,6.029,0.033,0.016,-0.006,102.0,103.0,101.0,13.4,1505.2,319.1,-0.8,1.8,2470.925,13.28,0.036,64.1
2022-08-13T05:10:03,42.805,6.029,0.028,-0.032,-0.013,102.0,103.0,101.0,13.4,1505.2,329.4,-0.8,1.8,2470.926,13.28,0.042,138.8
2022-08-13T05:13:03,42.805,6.029,0.028,-0.014,-0.027,103.0,102.0,102.0,13.4,1505.2,329.3,-0.7,1.8,2470.923,13.28,0.031,116.6
2022-08-13T05:16:03,42.805,6.029,0.01,-0.018,-0.015,103.0,102.0,102.0,13.4,1505.2,332.9,-0.8,1.8,2470.882,13.28,0.02,150.9
2022-08-13T05:19:03,42.805,6.029,0.044,-0.009,-0.026,105.0,102.0,100.0,13.4,1505.2,323.2,-0.8,1.8,2470.883,13.28,0.044,101.6
2022-08-13T05:22:03,42.805,6.029,0.012,-0.018,0.006,101.0,102.0,102.0,13.4,1505.2,320.3,-0.8,1.8,2470.868,13.28,0.021,146.3
2022-08-13T05:25:03,42.805,6.029,0.029,-0.035,-0.027,104.0,104.0,100.0,13.4,1505.2,333.4,-0.8,1.8,2470.874,13.28,0.045,140.4
2022-08-13T05:28:03,42.805,6.029,0.002,-0.02,-0.009,104.0,103.0,101.0,13.4,1505.2,330.0,-0.7,1.8,2470.867,13.28,0.02,174.3
2022-08-13T05:31:03,42.805,6.029,0.033,-0.015,-0.013,103.0,102.0,101.0,13.4,1505.2,329.5,-0.7,1.8,2470.927,13.28,0.036,114.4
2022-08-13T05:34:03,42.805,6.029,0.033,-0.027,-0.032,103.0,102.0,101.0,13.4,1505.2,326.3,-0.7,1.8,2470.892,13.29,0.042,129.3
2022-08-13T05:37:03,42.805,6.029,0.027,-0.034,-0.014,104.0,103.0,101.0,13.4,1505.2,322.5,-0.8,1.8,2470.897,13.28,0.043,141.5
2022-08-13T05:40:03,42.805,6.029,0.025,-0.012,0.0,104.0,102.0,100.0,13.4,1505.2,328.9,-0.8,1.8,2470.9,13.28,0.027,115.6
2022-08-13T05:43:03,42.805,6.029,0.009,-0.005,-0.009,102.0,103.0,101.0,13.4,1505.2,318.9,-0.7,1.8,2470.896,13.28,0.01,119.1
2022-08-13T05:46:03,42.805,6.029,0.032,-0.032,-0.024,102.0,104.0,100.0,13.4,1505.2,323.4,-0.7,1.8,2470.913,13.29,0.045,135.0
2022-08-13T05:49:03,42.805,6.029,0.019,-0.009,-0.005,104.0,103.0,102.0,13.4,1505.2,319.3,-0.8,1.8,2470.909,13.29,0.021,115.3
2022-08-13T05:52:03,42.805,6.029,0.022,-0.007,0.009,102.0,103.0,102.0,13.4,1505.2,320.1,-0.7,1.8,2470.937,13.28,0.023,107.6
2022-08-13T05:55:03,42.805,6.029,0.021,-0.009,-0.017,102.0,103.0,101.0,13.4,1505.2,327.9,-0.7,1.8,2470.914,13.29,0.022,113.2
2022-08-13T05:58:03,42.805,6.029,0.001,-0.019,-0.012,103.0,101.0,101.0,13.4,1505.2,331.9,-0.7,1.9,2470.912,13.29,0.019,177.0
2022-08-13T06:04:03,42.805,6.029,0.016,-0.012,-0.02,104.0,103.0,99.0,13.4,1505.2,332.0,-0.8,1.8,2470.982,13.28,0.02,126.9
2022-08-13T06:07:03,42.805,6.029,0.041,-0.025,0.021,103.0,101.0,100.0,13.4,1505.2,321.1,-0.7,1.8,2470.938,13.28,0.048,121.4
2022-08-13T06:10:03,42.805,6.029,0.047,-0.032,-0.03,102.0,102.0,101.0,13.4,1505.2,318.3,-0.8,1.8,2470.965,13.28,0.056,124.2
2022-08-13T06:13:03,42.805,6.029,0.032,-0.042,-0.031,102.0,103.0,101.0,13.4,1505.2,332.1,-0.8,1.8,2471.007,13.28,0.052,142.7
2022-08-13T06:16:03,42.805,6.029,0.023,-0.019,-0.011,104.0,102.0,101.0,13.4,1505.2,326.3,-0.8,1.8,2470.943,13.28,0.029,129.6
2022-08-13T06:19:03,42.805,6.029,0.003,-0.004,-0.019,101.0,101.0,102.0,13.3,1505.2,326.1,-0.8,1.8,2470.893,13.28,0.005,143.1
2022-08-13T06:22:03,42.805,6.029,0.027,-0.011,0.001,101.0,103.0,101.0,13.3,1505.2,329.8,-0.7,1.8,2470.965,13.28,0.029,112.2
2022-08-13T06:25:03,42.805,6.029,0.013,0.006,0.009,103.0,102.0,101.0,13.3,1505.2,329.2,-0.8,1.8,2470.95,13.28,0.014,65.2
2022-08-13T06:28:03,42.805,6.029,0.023,-0.011,-0.018,102.0,102.0,101.0,13.4,1505.2,321.5,-0.7,1.8,2470.939,13.28,0.025,115.6
2022-08-13T06:31:03,42.805,6.029,0.027,-0.02,-0.014,102.0,102.0,101.0,13.4,1505.2,328.7,-0.8,1.8,2470.952,13.28,0.033,126.5
2022-08-13T06:34:03,42.805,6.029,0.047,-0.035,-0.018,101.0,101.0,101.0,13.4,1505.2,319.7,-0.8,1.8,2470.948,13.28,0.058,126.7
2022-08-13T06:37:03,42.805,6.029,0.013,-0.028,-0.03,103.0,102.0,100.0,13.4,1505.2,331.0,-0.7,1.8,2470.963,13.29,0.03,155.1
2022-08-13T06:40:03,42.805,6.029,0.022,-0.02,-0.022,102.0,102.0,101.0,13.4,1505.2,329.7,-0.8,1.8,2470.921,13.29,0.029,132.3
2022-08-13T06:43:03,42.805,6.029,0.037,-0.045,-0.029,102.0,102.0,101.0,13.3,1505.2,321.9,-0.7,1.8,2470.943,13.29,0.058,140.6
2022-08-13T06:46:03,42.805,6.029,0.018,-0.02,-0.005,102.0,102.0,102.0,13.3,1505.2,333.6,-0.8,1.8,2470.974,13.29,0.026,138.0
2022-08-13T06:49:03,42.805,6.029,0.052,-0.028,-0.024,103.0,103.0,101.0,13.4,1505.2,321.8,-0.8,1.8,2470.97,13.29,0.059,118.3
2022-08-13T06:52:03,42.805,6.029,0.033,0.001,0.002,102.0,103.0,101.0,13.3,1505.2,320.7,-0.7,1.8,2470.974,13.29,0.033,88.3
2022-08-13T06:55:03,42.805,6.029,0.042,-0.022,-0.001,101.0,102.0,102.0,13.3,1505.2,321.4,-0.8,1.8,2470.928,13.29,0.047,117.6
2022-08-13T06:58:03,42.805,6.029,0.038,-0.014,-0.015,102.0,102.0,101.0,13.4,1505.2,325.1,-0.8,1.8,2470.97,13.29,0.04,110.2
2022-08-13T07:04:03,42.805,6.029,0.03,-0.022,-0.036,103.0,102.0,102.0,13.3,1505.2,325.4,-0.7,1.9,2471.003,13.28,0.037,126.3
2022-08-13T07:07:03,42.805,6.029,-0.006,-0.007,-0.006,102.0,103.0,101.0,13.4,1505.2,321.6,-0.8,1.8,2471.025,13.28,0.009,220.6
2022-08-13T07:10:03,42.805,6.029,0.042,-0.02,-0.019,103.0,102.0,100.0,13.4,1505.2,317.5,-0.8,1.8,2471.004,13.28,0.046,115.5
2022-08-13T07:13:03,42.805,6.029,0.01,-0.001,-0.01,103.0,102.0,101.0,13.3,1505.2,323.2,-0.7,1.8,2470.95,13.28,0.01,95.7
2022-08-13T07:16:03,42.805,6.029,0.029,-0.035,0.015,103.0,102.0,101.0,13.3,1505.2,333.1,-0.7,1.8,2470.986,13.28,0.045,140.4
2022-08-13T07:19:03,42.805,6.029,0.037,-0.017,-0.01,102.0,103.0,100.0,13.4,1505.2,322.9,-0.7,1.8,2470.972,13.28,0.04,114.7
2022-08-13T07:22:03,42.805,6.029,0.03,-0.029,-0.003,102.0,103.0,102.0,13.4,1505.2,319.4,-0.7,1.8,2470.971,13.28,0.041,134.0
2022-08-13T07:25:03,42.805,6.029,0.031,-0.03,-0.041,103.0,101.0,101.0,13.4,1505.2,325.5,-0.7,1.8,2470.963,13.29,0.043,134.1
2022-08-13T07:28:03,42.805,6.029,0.031,-0.025,-0.019,102.0,102.0,102.0,13.3,1505.2,326.4,-0.8,1.8,2470.954,13.28,0.039,128.9
2022-08-13T07:31:03,42.805,6.029,0.036,-0.028,0.002,102.0,102.0,101.0,13.4,1505.2,329.3,-0.8,1.8,2470.959,13.29,0.045,127.9
2022-08-13T07:34:03,42.805,6.029,0.017,-0.029,-0.012,102.0,102.0,101.0,13.4,1505.2,328.5,-0.8,1.8,2470.972,13.28,0.033,149.6
2022-08-13T07:37:03,42.805,6.029,0.023,-0.015,-0.05,102.0,101.0,100.0,13.3,1505.2,325.4,-0.8,1.8,2470.949,13.28,0.027,123.1
2022-08-13T07:40:03,42.805,6.029,0.022,-0.001,0.001,102.0,102.0,101.0,13.4,1505.2,326.9,-0.8,1.8,2470.918,13.29,0.022,92.6
2022-08-13T07:43:03,42.805,6.029,0.007,-0.024,-0.062,102.0,102.0,101.0,13.4,1505.2,331.2,-0.8,1.8,2470.993,13.28,0.025,163.7
2022-08-13T07:46:03,42.805,6.029,0.045,-0.027,-0.012,103.0,103.0,101.0,13.4,1505.2,320.3,-0.8,1.8,2470.966,13.29,0.052,121.0
2022-08-13T07:49:03,42.805,6.029,0.024,-0.024,-0.004,102.0,102.0,101.0,13.3,1505.2,324.6,-0.8,1.8,2471.0,13.29,0.033,135.0
2022-08-13T07:52:03,42.805,6.029,0.038,-0.037,-0.032,103.0,101.0,101.0,13.3,1505.2,326.4,-0.8,1.8,2470.903,13.29,0.053,134.2
2022-08-13T07:55:03,42.805,6.029,0.029,-0.01,-0.01,101.0,103.0,100.0,13.4,1505.2,325.9,-0.7,1.9,2470.953,13.29,0.03,109.0
2022-08-13T07:58:03,42.805,6.029,0.011,-0.034,-0.028,103.0,101.0,101.0,13.4,1505.2,322.0,-0.7,1.8,2470.955,13.29,0.035,162.1
2022-08-13T08:04:02,42.805,6.029,0.017,-0.024,-0.014,102.0,102.0,101.0,13.4,1505.2,324.4,-0.7,1.8,2470.975,13.28,0.029,144.7
2022-08-13T08:07:03,42.805,6.029,0.004,-0.012,0.004,103.0,102.0,100.0,13.3,1505.2,326.9,-0.7,1.8,2470.967,13.28,0.012,161.6
2022-08-13T08:10:03,42.805,6.029,-0.002,-0.012,0.013,103.0,102.0,102.0,13.3,1505.2,322.4,-0.8,1.8,2470.981,13.28,0.012,189.5
2022-08-13T08:13:03,42.805,6.029,0.045,-0.025,-0.017,102.0,102.0,101.0,13.4,1505.2,332.6,-0.8,1.8,2470.957,13.28,0.051,119.1
2022-08-13T08:16:03,42.805,6.029,0.04,-0.028,-0.013,102.0,102.0,102.0,13.4,1505.2,324.5,-0.7,1.8,2470.973,13.28,0.048,125.0
2022-08-13T08:19:02,42.805,6.029,0.04,-0.019,0.008,101.0,103.0,101.0,13.4,1505.2,331.5,-0.7,1.8,2471.003,13.28,0.044,115.4
2022-08-13T08:22:03,42.805,6.029,0.031,-0.001,-0.004,102.0,102.0,101.0,13.4,1505.2,320.7,-0.8,1.9,2470.954,13.28,0.031,91.8
2022-08-13T08:25:02,42.805,6.029,0.04,-0.026,-0.019,103.0,101.0,101.0,13.3,1505.2,323.2,-0.7,1.8,2470.96,13.28,0.047,123.0
2022-08-13T08:28:03,42.805,6.029,0.04,-0.033,-0.033,103.0,103.0,101.0,13.4,1505.2,327.0,-0.8,1.8,2470.939,13.29,0.051,129.5
2022-08-13T08:31:02,42.805,6.029,0.014,-0.04,-0.024,103.0,101.0,102.0,13.4,1505.2,328.7,-0.8,1.8,2470.967,13.29,0.042,160.7
2022-08-13T08:34:02,42.805,6.029,0.026,-0.026,0.002,101.0,102.0,102.0,13.4,1505.2,324.5,-0.7,1.8,2470.946,13.29,0.036,135.0
2022-08-13T08:37:02,42.805,6.029,0.024,-0.021,-0.02,104.0,100.0,100.0,13.4,1505.2,331.2,-0.8,1.8,2470.934,13.29,0.031,131.2
2022-08-13T08:40:02,42.805,6.029,0.041,-0.023,-0.017,102.0,104.0,100.0,13.4,1505.2,329.1,-0.8,1.8,2470.972,13.29,0.047,119.3
2022-08-13T08:43:02,42.805,6.029,0.02,-0.035,-0.03,102.0,102.0,101.0,13.3,1505.2,329.1,-0.8,1.8,2470.943,13.29,0.04,150.3
2022-08-13T08:46:02,42.805,6.029,0.02,-0.022,-0.005,103.0,102.0,100.0,13.3,1505.2,324.3,-0.8,1.8,2470.943,13.29,0.029,137.7
2022-08-13T08:49:02,42.805,6.029,0.021,-0.008,-0.039,104.0,103.0,100.0,13.3,1505.2,317.9,-0.8,1.8,2470.99,13.29,0.022,110.9
2022-08-13T08:52:02,42.805,6.029,0.011,-0.004,-0.016,102.0,102.0,102.0,13.4,1505.2,321.5,-0.8,1.8,2470.936,13.29,0.011,110.0
2022-08-13T08:55:02,42.805,6.029,0.017,-0.004,-0.003,103.0,103.0,100.0,13.4,1505.2,321.1,-0.8,1.8,2470.934,13.29,0.017,103.2
2022-08-13T08:58:02,42.805,6.029,0.028,-0.045,-0.026,101.0,104.0,101.0,13.4,1505.2,327.5,-0.7,1.8,2470.96,13.29,0.053,148.1
2022-08-13T09:04:02,42.805,6.029,0.009,-0.017,-0.019,103.0,103.0,101.0,13.3,1505.2,325.1,-0.7,1.8,2470.972,13.28,0.019,152.1
2022-08-13T09:07:02,42.805,6.029,0.029,-0.033,-0.036,104.0,103.0,101.0,13.4,1505.2,321.1,-0.8,1.8,2470.975,13.28,0.043,138.7
2022-08-13T09:10:03,42.805,6.029,0.016,-0.023,-0.005,103.0,103.0,101.0,13.4,1505.2,322.5,-0.8,1.9,2471.006,13.28,0.028,145.2
2022-08-13T09:13:02,42.805,6.029,0.035,-0.046,-0.009,103.0,103.0,101.0,13.4,1505.2,321.1,-0.8,1.8,2470.98,13.28,0.057,142.7
2022-08-13T09:16:03,42.805,6.029,0.022,-0.005,0.031,102.0,103.0,102.0,13.3,1505.2,322.7,-0.8,1.8,2470.941,13.28,0.022,102.8
2022-08-13T09:19:03,42.805,6.029,0.01,-0.017,-0.011,103.0,103.0,101.0,13.4,1505.2,327.0,-0.8,1.8,2470.967,13.28,0.019,149.5
2022-08-13T09:22:02,42.805,6.029,0.027,-0.019,-0.024,103.0,103.0,102.0,13.3,1505.2,321.7,-0.8,1.8,2470.953,13.29,0.033,125.1
2022-08-13T09:25:02,42.805,6.029,0.013,-0.025,-0.023,103.0,102.0,102.0,13.4,1505.2,323.1,-0.7,1.8,2470.942,13.29,0.028,152.5
2022-08-13T09:28:03,42.805,6.029,0.042,-0.019,0.011,102.0,103.0,101.0,13.3,1505.2,327.2,-0.7,1.8,2470.948,13.29,0.046,114.3
2022-08-13T09:31:03,42.805,6.029,0.009,-0.009,-0.004,103.0,102.0,101.0,13.4,1505.2,321.1,-0.8,1.8,2470.972,13.29,0.012,135.0
2022-08-13T09:34:03,42.805,6.029,0.029,-0.015,0.0,102.0,103.0,102.0,13.4,1505.2,322.1,-0.7,1.8,2470.908,13.29,0.032,117.4
2022-08-13T09:37:02,42.805,6.029,0.039,-0.007,-0.002,102.0,103.0,100.0,13.4,1505.2,326.3,-0.8,1.8,2470.915,13.29,0.039,100.2
2022-08-13T09:40:03,42.805,6.029,0.006,-0.021,0.001,103.0,102.0,101.0,13.3,1505.2,322.6,-0.8,1.8,2470.901,13.29,0.021,164.1
2022-08-13T09:43:03,42.805,6.029,0.008,-0.027,-0.06,103.0,102.0,101.0,13.4,1505.2,327.9,-0.8,1.8,2470.897,13.29,0.028,163.5
2022-08-13T09:46:03,42.805,6.029,0.018,-0.022,-0.057,102.0,103.0,102.0,13.4,1505.2,318.3,-0.7,1.8,2470.903,13.29,0.028,140.7
2022-08-13T09:49:03,42.805,6.029,0.021,-0.003,0.004,102.0,102.0,102.0,13.3,1505.2,319.1,-0.7,1.9,2470.877,13.29,0.021,98.1
2022-08-13T09:52:02,42.805,6.029,0.021,-0.019,-0.026,103.0,103.0,100.0,13.4,1505.2,326.6,-0.8,1.8,2470.92,13.29,0.028,132.1
2022-08-13T09:55:03,42.805,6.029,0.05,-0.005,-0.017,103.0,103.0,99.0,13.3,1505.2,321.5,-0.7,1.8,2470.929,13.29,0.05,95.7